DELTA 1 DEB, 40764

Orbit data source: Space-Track

DELTA 1 DEB, 40764 is space debris in SSO originally from a launch on Thu, 29 Jul 1976 UTC launched from the Air Force Western Test Range (AFWTR). Debris objects in space refer to the collection of defunct objects orbiting the Earth. Examples of debris include non-operational satellites, rocket bodies, and fragments generated from explosions, collisions, or faulty payload assembly.

Loading next visibility...
Identifier
40764, 1976-077GH
Orbit
SSO
Country
Flag of USUS
Related business
Manufacturer
Unknown
Mission
Spacecraft
Bus & Motor
Unknown
Mass
Unknown
Launch date (UTC)
1976-07-29 (49 years ago)
Launch vehicle
Unknown
Launch site
Air Force Western Test Range (AFWTR)
Object type
Payload
Rocket body
Debris
Shape & HBR
Unknown shape, 0.1 m
Radar Cross Section
Small (<0.1 m²)

Expand to show TLE details & history
Last TLE update: 4 days ago

TLE from 4 days ago
0 DELTA 1 DEB
1 40764U 76077GH  25308.75171144  .00000001  00000-0  34753-3 0  9992
2 40764 102.1759 285.6937 0001184  84.6546 275.4652 12.40701804873999
Epoch: 2025-11-04T18:02Z
TLE epoch observation values (Epoch: 2025-11-04T18:02:27.868Z)
Latitude
-0.00004°
Longitude
-29.15664°
Altitude
1,506.084 km
Speed
7.112 km/s
True Right ascension
19h 02m 46s
True Declination
0° 00' 00"
Sunlit
Object was in daylight at epoch
Visualization orbit readout
Latitude
Unknown
Longitude
Unknown
Altitude
Unknown
Speed
Unknown
Apparent Right ascension
Unknown
Apparent Declination
Unknown
Sunlit
N/A
Visualization observer readout
Local Sidereal Time
23:40:45
Azimuth
Unknown
Elevation
Unknown
Doppler factor
Unknown
Orbital elements
Apogee altitude
1,502.147 km
Perigee altitude
1,500.281 km
Semi-major axis
7,879.351 km
Eccentricity
0.00012
Inclination
102.1759°
RAAN
285.6937°
Arg. of periapsis
84.6546°
True anomaly
275.45169°
Mean anomaly
275.4652°
Eccentric anomaly
275.45845°
Mean motion
3.10318 °/min
Orbital period
116.01 mins
BSTAR
0.00034753
Loading maneuver chart data...
Computing Atmospheric mass density...
Loading historical data...
Loading historical data...
Loading historical data...
Loading historical data...
Loading historical data...
Loading historical data...
Loading historical data...

Documentation

Showing up to 5 results
|